Torna al catalogo

STARLINK-31217

AttivoComunicazioniVLEO
NORAD 59036·PAYLOAD·🇺🇸 United States

Lanciato Feb 25, 2024 da Cape Canaveral Space Force Station

Loading…

Prossimi Passaggi (prossime 24 ore)

TLE

AggiornatoSource: CelesTrak SupGP

Epoca: Sep 14, 2026, 22:20 UTC

1 59036C 24038P   26257.93104167  .00006871  00000+0  24896-3 0  2573
2 59036  43.0003 300.4820 0001521 265.7735  49.5145 15.27563986    17

Traccia STARLINK-31217 in tempo reale con AllMySat

Download on the App Store